Карточка аэропорта UHMM

Внимание!
Информация на этой странице в стадии наполнения.
Если вы не увидели какой-то информации, или заметили неточность - пожалуйста сообщите нам!
Спасибо!
Команда RU-STAFF
Название аэропортаСокол
Название аэропорта (англ.)Sokol
Превышение574 ft. (175 m.)
Координаты59°54.648', 150°43.2'
Высота перехода2500m
Эшелон переходаQFE>=744mm: FL100; 744mm>QFE>=717mm: FL110; QFE<717mm: FL120
Коды ответчика6540-6577
Зона ОрВДМагадан РПИ (UHMM)
Данные METARUHMM 300200Z 07004MPS 9999 BKN040 17/03 Q1013 R10/70D NOSIG RMK QFE745 R28/13006MPS
Проноз погоды (TAF)UHMM 291950Z 2921/3103 03003G08MPS 9999 SCT040 FM292300 08005G12MPS 9999 SCT040CB
NOTAMshow/hide NOTAM
AWOS   TABLE

Информация о ВПП


Диспетчерские позиции

Позывной Наименование органа УВД Частота
UHMM_APPМагадан-Подход119.3
UHMM_TWRМагадан-Вышка120.8



Спутниковое изображение